STAR ONE D1 (41904 NORAD) Tracking and Keplerian Element Data

This shows tracking and keplerian element data for the satellite.

Feedback or suggestion? Click here.




ElementValue
Catalog41904
NameSTAR ONE D1
Epoch Orbit698
Epoch Day317.08837497
Epoch Year2018
RAAN103.7836
Inclination0.045
Eccentricity0.0002963
Argument of Perigee144.0626
Mean Anonmoly112.1497
Mean Motion1.00270173
Decay Rate-2.12E-06
L11 41904U 16082B 18317.08837497 -.00000212 00000-0 00000+0 0 9996
L22 41904 0.0450 103.7836 0002963 144.0626 112.1497 1.00270173 6989

Live tracking and technical data element details for STAR ONE D1 (NORAD 41904). STAR ONE D1 can be tracked NOW for your location showing map with azimuth and elevation plus other details from your city location.

Track the satellite on the map from your city or location and see movement details for azimuth, elevation, latitude, longitude, range, height, and movement on the map or in text.







IsCatalogInMostPopularTable: catalog: 41904, numindb: 119
Update: records affected: 1



GetName: 41904 STAR ONE D1

Hit Count: updated at: Wed, 14 Nov 2018 12:09:09 GMT